N6AMQ-1 Weather Reports


time (UTC)temp
C
wind
direction
speed
KPH
gust
KPH
rain 1hr
cm
rain 24hr
cm
rain mn
cm
humidity
%
barometer
mb
20260503215005 18 45 1.6 0.0 0.00 0.00 0.00 61 1012.9
20260503214505 18 112 1.6 0.0 0.00 0.00 0.00 60 1012.9
20260503213607 18 270 0.0 1.6 0.00 0.00 0.00 60 1012.9
20260503213505 18 270 3.2 1.6 0.00 0.00 0.00 60 1012.9
20260503213005 18 225 1.6 0.0 0.00 0.00 0.00 59 1012.9
20260503212505 18 22 1.6 6.4 0.00 0.00 0.00 60 1012.9
20260503212005 18 292 1.6 0.0 0.00 0.00 0.00 60 1012.9
20260503211606 18 90 1.6 0.0 0.00 0.00 0.00 59 1012.9
20260503211505 18 270 3.2 0.0 0.00 0.00 0.00 59 1012.9
20260503210505 18 292 3.2 3.2 0.00 0.00 0.00 61 1012.9
20260503210006 18 225 4.8 4.8 0.00 0.00 0.00 62 1012.9
20260503205607 18 248 1.6 3.2 0.00 0.00 0.00 62 1012.9
20260503205505 18 270 4.8 0.0 0.00 0.00 0.00 62 1012.9
20260503205005 18 248 3.2 4.8 0.00 0.00 0.00 61 1012.9
20260503204505 18 225 3.2 0.0 0.00 0.00 0.00 61 1012.9
20260503204005 18 180 3.2 1.6 0.00 0.00 0.00 62 1012.9
20260503203607 17 270 1.6 1.6 0.00 0.00 0.00 63 1012.9
20260503203505 17 202 4.8 4.8 0.00 0.00 0.00 63 1012.9
20260503203005 17 270 1.6 6.4 0.00 0.00 0.00 61 1012.9
20260503202505 17 292 8.0 6.4 0.00 0.00 0.00 61 1012.9
20260503202005 17 202 1.6 0.0 0.00 0.00 0.00 63 1012.9
20260503201608 17 248 4.8 4.8 0.00 0.00 0.00 62 1012.9
20260503201505 17 292 1.6 4.8 0.00 0.00 0.00 61 1012.9
20260503201005 17 90 1.6 1.6 0.00 0.00 0.00 62 1012.9
20260503200005 17 270 1.6 4.8 0.00 0.00 0.00 61 1012.9
20260503195607 17 22 0.0 0.0 0.00 0.00 0.00 60 1012.9
20260503195505 17 45 0.0 0.0 0.00 0.00 0.00 60 1012.9
20260503194505 17 202 1.6 1.6 0.00 0.00 0.00 62 1012.9
20260503194005 17 180 1.6 0.0 0.00 0.00 0.00 61 1012.9
20260503193607 17 225 3.2 4.8 0.00 0.00 0.00 61 1012.9
20260503193005 17 315 4.8 6.4 0.00 0.00 0.00 63 1012.9
20260503192505 17 248 1.6 1.6 0.00 0.00 0.00 63 1013.9
20260503192005 17 270 3.2 3.2 0.00 0.00 0.00 62 1013.9
20260503191607 17 225 3.2 1.6 0.00 0.00 0.00 62 1013.9
20260503191505 17 202 3.2 0.0 0.00 0.00 0.00 62 1013.9
20260503191006 17 270 0.0 4.8 0.00 0.00 0.00 62 1012.9
20260503190505 17 22 1.6 0.0 0.00 0.00 0.00 63 1012.9
20260503190005 17 180 0.0 3.2 0.00 0.00 0.00 63 1012.9
20260503185607 17 158 1.6 3.2 0.00 0.00 0.00 63 1013.9
20260503185005 17 158 1.6 0.0 0.00 0.00 0.00 63 1013.9
20260503184505 17 202 0.0 3.2 0.00 0.00 0.00 64 1013.9
20260503184005 17 270 0.0 0.0 0.00 0.00 0.00 65 1013.9
20260503183607 17 270 3.2 9.7 0.00 0.00 0.00 64 1013.9
20260503183005 17 270 4.8 1.6 0.00 0.00 0.00 64 1013.9
20260503182506 16 292 0.0 3.2 0.00 0.00 0.00 65 1012.9
20260503182006 16 180 3.2 9.7 0.00 0.00 0.00 66 1012.9
20260503181607 16 158 0.0 4.8 0.00 0.00 0.00 66 1012.9
20260503181506 16 112 1.6 1.6 0.00 0.00 0.00 66 1012.9
20260503180505 16 270 1.6 1.6 0.00 0.00 0.00 66 1013.9
20260503180005 16 315 3.2 1.6 0.00 0.00 0.00 67 1013.9
20260503175607 16 158 1.6 0.0 0.00 0.00 0.00 68 1013.9
20260503175505 16 225 0.0 3.2 0.00 0.00 0.00 67 1013.9
20260503175005 15 225 0.0 0.0 0.00 0.00 0.00 70 1013.9
20260503174505 15 68 0.0 0.0 0.00 0.00 0.00 70 1013.9
20260503174005 15 292 0.0 3.2 0.00 0.00 0.00 71 1013.9
20260503173607 15 22 0.0 0.0 0.00 0.00 0.00 72 1013.9
20260503173005 15 270 0.0 1.6 0.00 0.00 0.00 73 1013.9
20260503172505 15 68 0.0 0.0 0.00 0.00 0.00 73 1013.9
20260503171608 15 180 0.0 0.0 0.00 0.00 0.00 75 1013.9
20260503170900 14 248 0.0 0.0 0.00 0.00 0.00 75 1013.9
20260503170758 14 225 0.0 0.0 0.00 0.00 0.00 76 1013.9
20260503170258 14 315 0.0 0.0 0.00 0.00 0.00 76 1013.9
20260503150902 13 158 0.0 0.0 0.00 0.00 0.00 83 1012.9
20260503150758 13 135 0.0 0.0 0.00 0.00 0.00 83 1012.9
20260503150258 13 135 0.0 0.0 0.00 0.00 0.00 83 1012.9
20260503140258 13 90 0.0 0.0 0.00 0.00 0.00 82 1011.9
20260503131258 13 68 0.0 0.0 0.00 0.00 0.00 82 1011.9
20260503130859 13 68 0.0 0.0 0.00 0.00 0.00 82 1011.9
20260503130758 13 68 0.0 0.0 0.00 0.00 0.00 82 1011.9
20260503130258 13 68 0.0 0.0 0.00 0.00 0.00 81 1011.9
20260503110758 13 248 0.0 0.0 0.00 0.00 0.00 79 1011.9
20260503110258 13 315 0.0 0.0 0.00 0.00 0.00 79 1011.9
20260503100258 13 68 0.0 0.0 0.00 0.00 0.00 78 1011.9
20260503090258 13 270 0.0 0.0 0.00 0.00 0.00 78 1011.9
20260503081258 13 112 0.0 0.0 0.00 0.00 0.00 77 1011.9
20260503080859 13 248 0.0 0.0 0.00 0.00 0.00 77 1011.9
20260503080758 13 248 0.0 0.0 0.00 0.00 0.00 77 1011.9
20260503080258 13 202 0.0 0.0 0.00 0.00 0.00 77 1011.9
20260503072900 13 202 0.0 0.0 0.00 0.00 0.00 77 1012.9
20260503072758 13 158 0.0 0.0 0.00 0.00 0.00 77 1012.9
20260503072258 13 270 0.0 0.0 0.00 0.00 0.00 77 1012.9
20260503071758 13 270 0.0 0.0 0.00 0.00 0.00 76 1012.9
20260503071258 13 270 0.0 0.0 0.00 0.00 0.00 77 1012.9
20260503070900 13 270 0.0 0.0 0.00 0.00 0.00 76 1012.9
20260503070758 13 270 0.0 0.0 0.00 0.00 0.00 76 1012.9
20260503070258 13 270 0.0 0.0 0.00 0.00 0.00 76 1012.9
20260503054900 13 270 0.0 0.0 0.00 0.03 0.03 77 1012.9
20260503054758 13 270 0.0 0.0 0.00 0.03 0.03 77 1012.9
20260503054258 13 270 0.0 0.0 0.00 0.03 0.03 76 1012.9
20260503053758 13 270 0.0 3.2 0.00 0.03 0.03 76 1012.9
20260503053258 13 292 0.0 0.0 0.00 0.03 0.03 76 1012.9
20260503052900 13 270 0.0 0.0 0.00 0.03 0.03 76 1012.9
20260503051758 13 248 0.0 0.0 0.00 0.03 0.03 76 1012.9
20260503051258 13 292 0.0 0.0 0.00 0.03 0.03 77 1012.9
20260503050900 13 315 0.0 0.0 0.00 0.03 0.03 76 1012.9
20260503050758 13 315 1.6 0.0 0.00 0.03 0.03 76 1012.9
20260503050258 13 270 0.0 0.0 0.00 0.03 0.03 77 1012.9
20260503045758 13 270 0.0 0.0 0.00 0.03 0.03 77 1012.9
20260503045258 13 270 1.6 0.0 0.00 0.03 0.03 77 1012.9
20260503044859 13 270 0.0 0.0 0.00 0.03 0.03 77 1012.9
20260503044758 13 270 0.0 0.0 0.00 0.03 0.03 77 1012.9
20260503043758 13 270 3.2 0.0 0.00 0.03 0.03 77 1012.9
20260503043258 13 315 0.0 0.0 0.00 0.03 0.03 76 1012.9
20260503032559 14 292 0.0 0.0 0.00 0.03 0.03 74 1010.8
20260503032100 14 292 0.0 0.0 0.00 0.03 0.03 74 1010.8
20260503031600 14 292 0.0 0.0 0.00 0.03 0.03 73 1010.8
20260503031202 14 292 0.0 0.0 0.00 0.03 0.03 73 1010.8
20260503030600 14 292 0.0 0.0 0.00 0.03 0.03 73 1010.8
20260503030100 14 292 0.0 0.0 0.00 0.03 0.03 73 1010.8
20260503025600 14 292 0.0 0.0 0.00 0.03 0.03 72 1010.8
20260503025201 14 292 0.0 0.0 0.00 0.03 0.03 72 1010.8
20260503025059 14 315 6.4 6.4 0.00 0.03 0.03 72 1010.8
20260503024600 15 315 6.4 6.4 0.00 0.03 0.03 71 1010.8
20260503024100 15 315 6.4 6.4 0.00 0.03 0.03 71 1010.8
20260503023600 15 315 6.4 6.4 0.00 0.03 0.03 71 1010.8
20260503023202 15 315 6.4 6.4 0.00 0.03 0.03 70 1010.8
20260503023100 15 315 6.4 6.4 0.00 0.03 0.03 70 1010.8
20260503022100 15 315 6.4 6.4 0.00 0.03 0.03 70 1010.8
20260503021600 15 315 6.4 6.4 0.00 0.03 0.03 70 1010.8
20260503021202 15 315 6.4 6.4 0.00 0.03 0.03 69 1010.8
20260503021100 15 315 6.4 6.4 0.00 0.03 0.03 69 1010.8
20260503020600 15 315 6.4 6.4 0.00 0.03 0.03 70 1010.8
20260503020100 15 315 6.4 6.4 0.00 0.03 0.03 69 1010.8
20260503015559 15 315 6.4 6.4 0.00 0.03 0.03 69 1010.8
20260503015203 15 315 6.4 6.4 0.00 0.03 0.03 70 1010.8
20260503015100 15 315 6.4 6.4 0.00 0.03 0.03 69 1010.8
20260503014600 15 315 6.4 6.4 0.00 0.03 0.03 69 1010.8
20260503014100 15 315 6.4 6.4 0.00 0.03 0.03 69 1010.8
20260503013600 16 315 6.4 6.4 0.00 0.03 0.03 68 1010.8
20260503013202 16 315 6.4 6.4 0.00 0.03 0.03 68 1010.8
20260503013100 16 315 6.4 6.4 0.00 0.03 0.03 68 1010.8
20260503012600 16 315 6.4 6.4 0.00 0.03 0.03 67 1010.8
20260503012100 16 315 6.4 6.4 0.00 0.03 0.03 66 1010.8
20260503011559 16 315 6.4 6.4 0.00 0.03 0.03 66 1010.8
20260503011202 16 315 6.4 6.4 0.00 0.03 0.03 67 1010.8
20260503011100 16 315 6.4 6.4 0.00 0.03 0.03 67 1010.8
20260503010600 17 315 6.4 6.4 0.00 0.03 0.03 67 1010.8
20260503010100 17 315 6.4 6.4 0.00 0.03 0.03 67 1010.8
20260503005600 17 292 1.6 4.8 0.00 0.03 0.03 66 1011.9
20260503005202 17 315 4.8 9.7 0.00 0.03 0.03 66 1011.9
20260503005100 17 338 6.4 6.4 0.00 0.03 0.03 66 1011.9
20260503004600 17 315 3.2 4.8 0.00 0.03 0.03 66 1011.9
20260503003600 17 270 3.2 1.6 0.00 0.03 0.03 66 1011.9
20260503003201 17 292 4.8 6.4 0.00 0.03 0.03 66 1011.9
20260503003100 17 292 4.8 6.4 0.00 0.03 0.03 66 1011.9
20260503002559 17 270 3.2 0.0 0.00 0.03 0.03 66 1011.9
20260503002100 17 270 4.8 8.0 0.00 0.03 0.03 66 1011.9
20260503001600 17 270 1.6 0.0 0.00 0.03 0.03 65 1011.9
20260503001201 18 0 3.2 3.2 0.00 0.03 0.03 65 1011.9
20260503001100 18 270 3.2 3.2 0.00 0.03 0.03 65 1011.9
20260503000559 18 248 6.4 9.7 0.00 0.03 0.03 64 1011.9
20260503000100 18 270 3.2 6.4 0.00 0.03 0.03 64 1011.9
20260502235600 18 270 3.2 1.6 0.00 0.03 0.03 64 1011.9
20260502235203 18 270 6.4 8.0 0.00 0.03 0.03 64 1011.9
20260502235100 18 270 0.0 8.0 0.00 0.03 0.03 64 1011.9
20260502234559 18 248 0.0 0.0 0.00 0.03 0.03 64 1011.9
20260502234100 18 338 0.0 0.0 0.00 0.03 0.03 65 1011.9
20260502233559 18 270 0.0 0.0 0.00 0.03 0.03 65 1011.9
20260502233203 18 112 0.0 1.6 0.00 0.03 0.03 66 1011.9
20260502233100 18 68 0.0 0.0 0.00 0.03 0.03 66 1011.9
20260502232600 18 292 0.0 4.8 0.00 0.03 0.03 66 1011.9
20260502232100 18 248 1.6 0.0 0.00 0.03 0.03 66 1011.9
20260502231600 18 202 0.0 0.0 0.00 0.03 0.03 67 1011.9
20260502231201 18 315 0.0 0.0 0.00 0.03 0.03 67 1011.9
20260502231100 18 135 0.0 0.0 0.00 0.03 0.03 67 1011.9
20260502230600 18 248 0.0 0.0 0.00 0.03 0.03 68 1011.9
20260502230100 18 90 0.0 0.0 0.00 0.03 0.03 67 1011.9
20260502225600 18 0 0.0 0.0 0.00 0.03 0.03 67 1011.9
20260502225202 18 225 0.0 0.0 0.00 0.03 0.03 65 1011.9
20260502225100 18 270 0.0 0.0 0.00 0.03 0.03 66 1011.9
20260502224100 18 180 0.0 0.0 0.00 0.03 0.03 67 1012.9
20260502223559 18 315 0.0 0.0 0.00 0.03 0.03 67 1012.9
20260502223201 18 292 0.0 0.0 0.00 0.03 0.03 66 1012.9
20260502223100 18 225 0.0 0.0 0.00 0.03 0.03 66 1012.9
20260502222600 18 225 1.6 0.0 0.00 0.03 0.03 67 1012.9
20260502222100 18 180 0.0 0.0 0.00 0.03 0.03 66 1012.9
20260502221600 18 135 0.0 0.0 0.00 0.03 0.03 67 1012.9
20260502221201 18 180 0.0 1.6 0.00 0.03 0.03 67 1012.9
20260502220600 18 270 0.0 0.0 0.00 0.03 0.03 67 1012.9
20260502220100 18 315 0.0 0.0 0.00 0.03 0.03 67 1012.9
20260502215559 18 248 0.0 0.0 0.00 0.03 0.03 67 1012.9